Terug naar catalogus

ORB-12 STRIDER

LostWetenschapVLEO
NORAD 57483·PAYLOAD·🇬🇧 United Kingdom

Gelanceerd Jul 30, 2023 vanaf Satish Dhawan Space Centre

Loading…

Volgende Passages (komende 24 uur)

TLE

VerouderdSource: Space-Track

Epoch: Jan 10, 2024, 19:03 UTC

1 57483U 23109C   24010.79410534  .00010603  00000-0  49907-3 0  9994
2 57483   5.0027 110.8465 0013742 325.2209  34.7002 15.15065068 25008

Volg ORB-12 STRIDER in realtime met AllMySat

Download on the App Store